[[{"header":{"parameterUnit":"m.s-1","parameterCategory":1,"la1":30.2991,"la2":30.254,"lo1":-89.0895,"lo2":-89.0444,"dy":0.0017,"dx":0.0017,"nx":28,"ny":28,"refTime":"2024-02-15T09:00:00:Z","depth":0,"parameterNumber":2,"parameterNumberName":"U-component_of_WINDS"},"data":[0,0,0,0,0,0,0,0,0,0,0,0,0,0,0,0,0,0,0,0,0,0,0,0,0,0,0,0,0,0,0,0,0,0,0,0,0,0,0,0,0,0,0,0,0,0,0,0,0,0,0,0,0,0,0,0,0,0,-1.2382,-1.2382,0,-1.242,-1.2421,-1.2421,-1.2401,-1.24,-1.2399,-1.2398,-1.2438,-1.244,-1.2442,0,0,0,0,0,0,0,0,0,0,0,0,0,-1.2294,-1.2296,-1.2382,-1.2382,-1.2383,-1.242,-1.2421,-1.2421,-1.2401,-1.24,-1.2399,-1.2397,-1.2438,-1.244,-1.2443,0,0,0,0,0,0,0,0,0,0,0,0,0,-1.2332,-1.2296,-1.2382,-1.2377,-1.2377,-1.242,-1.2421,-1.2421,-1.2401,-1.24,-1.2398,-1.2397,-1.2437,-1.244,-1.2443,-1.2493,0,0,-1.2452,-1.2454,0,0,0,0,0,0,0,0,-1.233,-1.2335,-1.2377,-1.2378,-1.2378,-1.2404,-1.2404,-1.2445,-1.2402,-1.2392,-1.2398,-1.2396,-1.2428,-1.2432,-1.2443,-1.2495,-1.2496,-1.2453,-1.2454,-1.2456,-1.2457,0,0,0,0,0,0,0,-1.2327,-1.2334,-1.2397,-1.2378,-1.2378,-1.2374,-1.2378,-1.2412,-1.2419,-1.2393,-1.2392,-1.2396,-1.2428,-1.244,-1.2443,-1.2497,-1.2453,-1.2455,-1.2457,-1.2458,-1.2594,-1.2595,0,0,0,0,0,0,-1.2325,-1.2332,-1.2396,-1.2398,-1.235,-1.2377,-1.2381,-1.2397,-1.2418,-1.242,-1.2398,-1.2395,-1.2435,-1.244,-1.2445,-1.2505,-1.2456,-1.2459,-1.246,-1.2592,-1.2594,-1.2596,0,0,0,0,0,0,-1.2323,-1.2331,-1.2394,-1.2365,-1.2372,-1.238,-1.2398,-1.2399,-1.241,-1.2422,-1.2423,-1.2408,-1.2434,-1.2441,-1.2481,-1.2506,-1.246,-1.2463,-1.259,-1.2592,-1.2595,-1.2626,0,0,0,0,0,0,-1.232,-1.233,-1.2348,-1.2365,-1.2374,-1.2429,-1.24,-1.2401,-1.2415,-1.2413,-1.2432,-1.2433,-1.2434,-1.2477,-1.2484,-1.251,-1.2465,-1.2588,-1.2591,-1.2594,-1.2623,-1.2629,-1.2635,0,0,0,0,0,-1.2317,-1.2355,-1.2349,-1.2357,-1.2397,-1.2431,-1.2436,-1.2435,-1.2417,-1.2436,-1.2444,-1.2433,-1.2503,-1.2481,-1.2489,-1.2516,-1.2586,-1.259,-1.2594,-1.262,-1.2628,-1.2635,0,0,0,0,0,0,-1.2341,-1.2357,-1.2351,-1.2395,-1.2412,-1.2427,-1.2451,-1.2443,-1.2465,-1.2462,-1.246,-1.2464,-1.2507,-1.2516,-1.2492,-1.2566,-1.2542,-1.2547,-1.2559,-1.2566,-1.2572,-1.2569,-1.2468,0,0,0,0,0,-1.2352,-1.2377,-1.239,-1.2428,-1.2437,-1.2443,-1.2457,-1.2455,-1.2472,-1.2479,-1.249,-1.2507,-1.2533,-1.255,-1.2575,-1.2624,-1.2629,-1.2647,-1.2653,-1.2658,-1.2663,-1.2691,-1.2699,-1.2609,-1.2609,-1.2609,0,0,-1.2374,-1.2386,-1.2402,-1.2434,-1.2446,-1.2473,-1.2449,-1.2478,-1.2499,-1.2484,-1.2523,-1.2532,-1.2551,-1.2597,-1.2617,-1.2605,-1.2689,-1.2663,-1.2667,-1.2669,-1.2695,-1.2704,-1.2712,-1.2611,-1.2611,-1.2611,0,0,-1.2427,-1.2439,-1.2472,-1.2486,-1.2505,-1.2509,-1.2517,-1.2534,-1.2539,-1.2578,-1.2568,-1.2593,-1.2638,-1.2652,-1.2666,-1.2727,-1.2718,-1.2736,-1.2767,-1.2794,-1.2801,-1.2808,-1.283,-1.2838,-1.274,-1.2741,-1.2741,0,-1.2452,-1.2492,-1.249,-1.2521,-1.2536,-1.2524,-1.2559,-1.2572,-1.2598,-1.2609,-1.2596,-1.2652,-1.2665,-1.2714,-1.2729,-1.274,-1.275,-1.2733,-1.28,-1.2807,-1.2813,-1.2834,-1.2842,-1.2743,-1.2742,-1.2742,-1.2742,0,-1.2522,-1.255,-1.2575,-1.2601,-1.2618,-1.2651,-1.2655,-1.2674,-1.2671,-1.2676,-1.2717,-1.2732,-1.276,-1.2772,-1.2769,-1.2821,-1.2813,-1.28,-1.2775,-1.2823,-1.2843,-1.2851,-1.2745,-1.2745,-1.2744,-1.2744,0,0,-1.259,-1.2616,-1.2625,-1.2637,-1.2658,-1.2681,-1.2713,-1.274,-1.2756,-1.2776,-1.2804,-1.2843,-1.2831,-1.2847,-1.2846,-1.287,-1.2919,-1.2854,-1.2854,-1.2866,-1.2978,-1.2987,-1.2997,-1.2913,-1.2915,-1.2916,-1.2976,0,-1.2645,-1.2701,-1.2702,-1.2754,-1.2781,-1.2771,-1.28,-1.2817,-1.2824,-1.2848,-1.2856,-1.2883,-1.2866,-1.2875,-1.2899,-1.2908,-1.2941,-1.2903,-1.294,-1.2941,-1.2934,-1.3007,-1.3017,-1.3073,-1.2984,-1.2986,-1.2987,0,-1.2716,-1.2738,-1.2793,-1.2812,-1.2823,-1.2849,-1.2874,-1.2897,-1.2917,-1.2921,-1.2939,-1.2935,-1.2969,-1.2944,-1.2993,-1.2967,-1.2983,-1.299,-1.2992,-1.2995,-1.2966,-1.3012,-1.3091,-1.3099,-1.2999,-1.2998,-1.2997,0,-1.2761,-1.2804,-1.2843,-1.2853,-1.2876,-1.2895,-1.2905,-1.2923,-1.294,-1.2963,-1.2974,-1.3001,-1.3016,-1.3037,-1.3041,-1.3022,-1.309,-1.3065,-1.3094,-1.3094,-1.3108,-1.3107,-1.3191,-1.3119,-1.3119,-1.3119,-1.3118,0,-1.2822,-1.2856,-1.2863,-1.2887,-1.2925,-1.2926,-1.2964,-1.2974,-1.299,-1.3017,-1.3011,-1.3035,-1.3039,-1.3066,-1.307,-1.311,-1.3116,-1.3121,-1.3121,-1.3121,-1.312,-1.313,-1.3126,-1.3121,-1.312,-1.312,-1.312,0,-1.2877,-1.2883,-1.2925,-1.2944,-1.2949,-1.2977,-1.2993,-1.3017,-1.3023,-1.3057,-1.3065,-1.3076,-1.3107,-1.3113,-1.315,-1.3152,-1.32,-1.3197,-1.3193,-1.3193,-1.3222,-1.3219,-1.3314,-1.3327,-1.3247,-1.3248,-1.3248,0,-1.2916,-1.2942,-1.2963,-1.298,-1.2992,-1.3019,-1.3036,-1.3039,-1.3058,-1.3083,-1.3104,-1.3134,-1.3158,-1.3208,-1.322,-1.3248,-1.3246,-1.3277,-1.325,-1.3249,-1.3246,-1.3245,-1.3248,-1.3282,-1.3283,-1.3284,-1.3284,0,-1.2983,-1.2985,-1.301,-1.3036,-1.3057,-1.3078,-1.3098,-1.3112,-1.3118,-1.3139,-1.3171,-1.319,-1.3227,-1.3258,-1.3287,-1.3299,-1.3293,-1.3293,-1.3301,-1.3301,-1.3298,-1.33,-1.3207,-1.3291,-1.329,-1.3289,-1.3289,-1.3289,-1.3031,-1.3054,-1.3073,-1.3101,-1.3117,-1.3136,-1.3159,-1.3169,-1.3195,-1.3226,-1.3227,-1.3261,-1.3282,-1.332,-1.3334,-1.3362,-1.3352,-1.3364,-1.3367,-1.337,-1.3373,-1.3294,-1.3367,-1.3367,-1.3367,-1.3367,-1.3367,0,-1.3098,-1.311,-1.3136,-1.3164,-1.3187,-1.318,-1.3202,-1.3222,-1.3252,-1.3272,-1.3296,-1.3333,-1.3363,-1.3378,-1.3408,-1.3427,-1.3426,-1.3435,-1.3433,-1.3436,-1.338,-1.3369,-1.3436,-1.3436,-1.3436,-1.3436,-1.3436,-1.3436,-1.3135,-1.3174,-1.3179,-1.3226,-1.3238,-1.3272,-1.3285,-1.3303,-1.3319,-1.3361,-1.3385,-1.3395,-1.3413,-1.3445,-1.3473,-1.3476,-1.3488,-1.3499,-1.3501,-1.3447,-1.344,-1.3434,-1.3424,-1.3501,-1.3501,-1.3556,-1.3556,-1.3557]},{"header":{"parameterUnit":"m.s-1","parameterCategory":1,"la1":30.2991,"la2":30.254,"lo1":-89.0895,"lo2":-89.0444,"dy":0.0017,"dx":0.0017,"nx":28,"ny":28,"refTime":"2024-02-15T09:00:00:Z","depth":0,"parameterNumber":3,"parameterNumberName":"V-component_of_WINDS"},"data":[0,0,0,0,0,0,0,0,0,0,0,0,0,0,0,0,0,0,0,0,0,0,0,0,0,0,0,0,0,0,0,0,0,0,0,0,0,0,0,0,0,0,0,0,0,0,0,0,0,0,0,0,0,0,0,0,0,0,1.0658,1.0658,0,1.0674,1.0674,1.0674,1.0693,1.0693,1.0694,1.0694,1.0707,1.0707,1.0707,0,0,0,0,0,0,0,0,0,0,0,0,0,1.0643,1.0643,1.0658,1.0658,1.0659,1.0674,1.0674,1.0674,1.0693,1.0693,1.0694,1.0694,1.0707,1.0707,1.0707,0,0,0,0,0,0,0,0,0,0,0,0,0,1.0653,1.0643,1.0658,1.067,1.0671,1.0674,1.0674,1.0674,1.0693,1.0693,1.0694,1.0694,1.0707,1.0707,1.0707,1.0698,0,0,1.0707,1.0707,0,0,0,0,0,0,0,0,1.0652,1.0653,1.0668,1.0669,1.067,1.0682,1.0673,1.0682,1.0693,1.0684,1.0694,1.0694,1.0698,1.0699,1.07,1.0698,1.0699,1.0707,1.0707,1.0707,1.0707,0,0,0,0,0,0,0,1.0652,1.0653,1.0664,1.0668,1.067,1.0674,1.0676,1.0675,1.0688,1.0685,1.0687,1.0688,1.0699,1.07,1.0701,1.0699,1.0707,1.0707,1.0707,1.0707,1.0692,1.0692,0,0,0,0,0,0,1.0649,1.0652,1.0664,1.0665,1.0662,1.0674,1.0676,1.0678,1.0688,1.069,1.0688,1.0689,1.07,1.0701,1.0701,1.0693,1.0707,1.0707,1.0707,1.0693,1.0692,1.0692,0,0,0,0,0,0,1.0649,1.065,1.0663,1.0659,1.0661,1.0673,1.0675,1.0678,1.068,1.0691,1.0693,1.0688,1.07,1.0701,1.0699,1.0694,1.0707,1.0707,1.0693,1.0693,1.0692,1.0675,0,0,0,0,0,0,1.0649,1.065,1.0647,1.0659,1.0661,1.0661,1.0675,1.0678,1.068,1.0682,1.0691,1.0692,1.0701,1.0699,1.0699,1.0694,1.0707,1.0694,1.0693,1.0692,1.0676,1.0674,1.0672,0,0,0,0,0,1.0648,1.0641,1.0647,1.0648,1.0658,1.0661,1.0662,1.0673,1.068,1.0677,1.0684,1.0692,1.0694,1.0699,1.0699,1.0694,1.0694,1.0693,1.0692,1.0677,1.0675,1.0672,0,0,0,0,0,0,1.0627,1.0643,1.065,1.0646,1.0652,1.0664,1.0661,1.0669,1.0673,1.0674,1.0686,1.0688,1.0685,1.0689,1.0693,1.0686,1.0695,1.0694,1.0684,1.0681,1.0679,1.0679,1.0707,0,0,0,0,0,1.0622,1.0624,1.0637,1.0633,1.0636,1.0648,1.065,1.0658,1.0664,1.0666,1.0673,1.0678,1.068,1.0681,1.0683,1.0677,1.068,1.0674,1.0672,1.067,1.0669,1.0667,1.0665,1.0688,1.0688,1.0688,0,0,1.0612,1.0621,1.0621,1.0629,1.0635,1.0636,1.065,1.065,1.0652,1.0666,1.0665,1.067,1.0677,1.0673,1.0672,1.0676,1.0663,1.0669,1.0667,1.0667,1.0666,1.0664,1.0662,1.0688,1.0688,1.0688,0,0,1.0595,1.0601,1.0599,1.0605,1.0614,1.0622,1.0622,1.0633,1.0637,1.0637,1.0648,1.0649,1.0651,1.0656,1.0659,1.0644,1.0652,1.0644,1.0634,1.0632,1.063,1.0628,1.0624,1.0622,1.0643,1.0643,1.0643,0,1.0581,1.0584,1.0597,1.0597,1.0601,1.0615,1.0613,1.0618,1.0626,1.0628,1.0634,1.0639,1.0644,1.0642,1.0639,1.064,1.064,1.0644,1.0629,1.0628,1.0627,1.0623,1.0621,1.0642,1.0643,1.0643,1.0643,0,1.0567,1.0569,1.0566,1.0576,1.0579,1.0578,1.059,1.0592,1.06,1.0607,1.0607,1.0614,1.0618,1.0618,1.0625,1.0618,1.0621,1.0627,1.0637,1.0623,1.062,1.0618,1.0641,1.0641,1.0642,1.0642,0,0,1.0537,1.0555,1.0553,1.0559,1.057,1.0572,1.0571,1.0577,1.0579,1.0584,1.0584,1.0587,1.0594,1.0597,1.0604,1.0603,1.0592,1.061,1.061,1.0607,1.0586,1.0581,1.0579,1.0598,1.0597,1.0597,1.0586,0,1.0522,1.0524,1.0536,1.0534,1.0537,1.0551,1.0551,1.0557,1.0564,1.0567,1.0574,1.0577,1.0585,1.0587,1.0586,1.0594,1.0588,1.0595,1.0598,1.0598,1.0597,1.0577,1.0572,1.0561,1.0584,1.0584,1.0584,0,1.0505,1.0511,1.051,1.0523,1.0525,1.0525,1.0531,1.0534,1.0542,1.0547,1.0551,1.056,1.0561,1.0569,1.057,1.0574,1.0576,1.058,1.058,1.0581,1.059,1.0579,1.0557,1.0556,1.0582,1.0582,1.0582,0,1.0484,1.0492,1.0493,1.0497,1.0512,1.0511,1.0517,1.0526,1.0529,1.0534,1.0537,1.0542,1.0544,1.0548,1.0558,1.0563,1.0558,1.0567,1.0562,1.0562,1.0561,1.0561,1.054,1.0561,1.0561,1.0561,1.0561,0,1.0467,1.0466,1.0485,1.0485,1.0485,1.0498,1.0497,1.0504,1.0511,1.0513,1.0525,1.0526,1.0539,1.0542,1.0549,1.055,1.055,1.0555,1.0557,1.0554,1.0554,1.0556,1.0557,1.056,1.0561,1.0561,1.0561,0,1.0444,1.0456,1.0458,1.0473,1.0476,1.0475,1.0487,1.0488,1.0496,1.0498,1.0499,1.0512,1.0516,1.0526,1.0532,1.0537,1.0536,1.0539,1.0534,1.0535,1.053,1.0531,1.0511,1.0509,1.053,1.053,1.0529,0,1.0433,1.0433,1.0447,1.045,1.0456,1.046,1.0464,1.0477,1.048,1.049,1.049,1.0495,1.05,1.0505,1.0514,1.0519,1.0524,1.0516,1.0524,1.0522,1.0525,1.0525,1.0525,1.0515,1.0514,1.0514,1.0514,0,1.0412,1.0418,1.0424,1.0432,1.0436,1.0443,1.045,1.0451,1.0466,1.0469,1.0474,1.0478,1.0485,1.049,1.0497,1.0502,1.051,1.0511,1.0511,1.0508,1.0505,1.0508,1.053,1.0512,1.0512,1.0512,1.0512,1.0512,1.0395,1.0396,1.0407,1.0413,1.042,1.0427,1.0429,1.0438,1.0443,1.0451,1.0458,1.0462,1.0471,1.0481,1.0485,1.0489,1.0493,1.0492,1.0492,1.0491,1.0491,1.0505,1.049,1.049,1.049,1.049,1.049,0,1.0375,1.0383,1.0389,1.0399,1.0404,1.0413,1.0421,1.0425,1.0429,1.0437,1.0442,1.0448,1.0453,1.0463,1.0469,1.047,1.0474,1.0471,1.0472,1.0473,1.0486,1.0486,1.0468,1.0468,1.0468,1.0468,1.0468,1.0468,1.0366,1.0369,1.0376,1.0383,1.0391,1.0396,1.0401,1.0407,1.0413,1.042,1.0425,1.0432,1.0441,1.0448,1.0453,1.0456,1.0458,1.0454,1.0458,1.047,1.0472,1.0474,1.0474,1.0454,1.0454,1.0445,1.0445,1.0444]}]]